Regional Weather Roundup
Issued by NWS State College, PA

Home | Current Version | Previous Version | Text Only | Print | Product List | Glossary Off
Versions: 1 2 3 4 5 6 7 8 9 10 11 12 13 14 15 16 17 18 19 20 21 22 23 24 25 26 27 28 29 30 31 32 33 34 35 36 37 38 39 40 41 42 43 44 45 46 47 48 49 50

000
ASUS41 KCTP 271803
RWRCTP

REGIONAL WEATHER ROUNDUP
NATIONAL WEATHER SERVICE STATE COLLEGE PA
200 PM EDT THU AUG 27 2015

Note: "fair" indicates few or no clouds below 12,000 feet with no
significant weather and/or obstructions to visibility.

* = STATION THAT DOES NOT REPORT PRECIPITATION /E.G. RAIN...SNOW...ETC/
    THUNDER OR FOG.

PAZ002>004-007>009-013>016-020>023-029>032-271900-
WESTERN PENNSYLVANIA

CITY           SKY/WX    TMP DP  RH WIND       PRES   REMARKS
ERIE           CLOUDY    67  53  61 W7        30.18F
MEADVILLE      CLOUDY    66  52  60 NW7       30.19S
FRANKLIN*      CLOUDY    66  55  68 NW6       30.20S
NEW CASTLE     MOCLDY    69  60  73 CALM      30.20S
BEAVER COUNTY  LGT RAIN  64  57  77 W3        30.19S
BUTLER*        CLOUDY    66  55  68 NW3       30.20F
PITTSBURGH INT CLOUDY    70  54  56 N3        30.18F
PITTSBURGH     CLOUDY    68  52  56 N7        30.18S
INDIANA*       CLOUDY    68  55  64 N7        30.21F
LATROBE        CLOUDY    66  55  68 CALM      30.19F
WASHINGTON CO* NOT AVBL
$$

PAZ004>006-010>012-017>019-024>028-033>037-041-042-045-046-049>053-271900-
CENTRAL PENNSYLVANIA

CITY           SKY/WX    TMP DP  RH WIND       PRES   REMARKS
BRADFORD       CLOUDY    65  53  65 N9        30.18F
DUBOIS         CLOUDY    69  53  56 N8        30.17S
CLEARFIELD     CLOUDY    67  53  61 NW7       30.18
JOHNSTOWN      CLOUDY    63  51  65 W8        30.19F
ALTOONA        CLOUDY    69  52  54 VRB6      30.18S
STATE COLLEGE  CLOUDY    66  55  68 CALM      30.16F
WILLIAMSPORT   CLOUDY    71  54  54 NW6       30.12S
SELINSGROVE    CLOUDY    71  56  58 N6        30.13S
FT INDIANTOWN  PTSUNNY   76  55  48 VRB6      30.12S
CAPITAL CITY   CLOUDY    74  53  48 NW9       30.12F
HARRISBURG     PTSUNNY   74  54  49 NW10      30.11F
YORK           CLOUDY    73  56  54 NW8       30.13S
$$

PAZ038>040-043-044-047-048-054-055-060>062-067>071-271900-
EASTERN PENNSYLVANIA

CITY           SKY/WX    TMP DP  RH WIND       PRES   REMARKS
SCRANTON       CLOUDY    69  51  52 NW9       30.13S
MOUNT POCONO   MOSUNNY   67  51  56 NW13G21   30.13S
ALLENTOWN      CLOUDY    77  55  46 NW10      30.10S
QUAKERTOWN*    MOCLDY    75  55  50 N8        30.11S
READING        PTSUNNY   75  54  47 NW13G18   30.10S
LANCASTER      PTSUNNY   74  55  51 NW9       30.11F
COATESVILLE    MOCLDY    72  55  56 N5        30.12S
POTTSTOWN      MOSUNNY   76  57  51 NW7       30.11S
BLUE BELL      MOSUNNY   79  59  50 CALM      30.08F
DOYLESTOWN     PTSUNNY   74  54  49 VRB6      30.08F
WILLOW GROVE   NOT AVBL
NORTH PHILA    MOSUNNY   78  52  40 N6        30.10S
PHILADELPHIA   PTSUNNY   80  51  36 N6        30.08F
$$


USA.gov is the U.S. government's official web portal to all federal, state and local government web resources and services.